N7612J KLAX-KSBA

Flight info

Callsign N7612J
Flight time 0h 35m
Altitude 6000
Route LAXP69
Aircraft SR22/L-G/L

Departure

Time 2026-04-26 18:37
Airport Los Angeles International Airport (KLAX)

Arrival

Time 2026-04-26 19:12
Airport Santa Barbara Municipal Airport (KSBA)
Time Latitude Longitude Altitude Speed Heading
2026-04-26 18:28 33.93377 -118.39476 104 ft 0 kts 89°
2026-04-26 18:33 33.93377 -118.39472 104 ft 3 kts 84°
2026-04-26 18:33 33.93378 -118.39416 103 ft 8 kts 80°
2026-04-26 18:34 33.93379 -118.39414 103 ft 8 kts 79°
2026-04-26 18:35 33.93380 -118.39409 103 ft 0 kts 78°
2026-04-26 18:35 33.93380 -118.39407 103 ft 2 kts 84°
2026-04-26 18:35 33.93402 -118.39383 103 ft 5 kts 360°
2026-04-26 18:35 33.93437 -118.39390 103 ft 11 kts 351°
2026-04-26 18:36 33.93489 -118.39367 102 ft 17 kts 60°
2026-04-26 18:36 33.93512 -118.39228 102 ft 19 kts 83°
2026-04-26 18:36 33.93566 -118.39111 102 ft 19 kts
2026-04-26 18:36 33.93649 -118.39265 102 ft 45 kts 257°
2026-04-26 18:37 33.93580 -118.39754 359 ft 59 kts 256°
2026-04-26 18:37 33.93539 -118.40233 665 ft 64 kts 261°
2026-04-26 18:37 33.93483 -118.40797 1065 ft 69 kts 261°
2026-04-26 18:37 33.93427 -118.41341 1540 ft 65 kts 262°
2026-04-26 18:38 33.93373 -118.41873 1969 ft 66 kts 261°
2026-04-26 18:38 33.93318 -118.42428 2358 ft 73 kts 262°
2026-04-26 18:38 33.93245 -118.43052 2626 ft 80 kts 262°
2026-04-26 18:38 33.93203 -118.43374 2730 ft 85 kts 261°
2026-04-26 18:39 33.93103 -118.44123 2985 ft 93 kts 262°
2026-04-26 18:39 33.92997 -118.44880 3314 ft 91 kts 262°
2026-04-26 18:39 33.92887 -118.45623 3640 ft 91 kts 262°
2026-04-26 18:39 33.92772 -118.46366 3958 ft 91 kts 261°
2026-04-26 18:40 33.92654 -118.47111 4267 ft 92 kts 262°
2026-04-26 18:40 33.92532 -118.47871 4582 ft 93 kts 261°
2026-04-26 18:40 33.92410 -118.48623 4901 ft 93 kts 262°
2026-04-26 18:40 33.92438 -118.49385 5211 ft 92 kts 284°
2026-04-26 18:41 33.92625 -118.50106 5530 ft 92 kts 287°
2026-04-26 18:41 33.92840 -118.50833 5845 ft 93 kts 288°
2026-04-26 18:41 33.93086 -118.51606 5963 ft 105 kts 290°
2026-04-26 18:41 33.93382 -118.52498 5984 ft 122 kts 290°
2026-04-26 18:42 33.93720 -118.53494 5981 ft 134 kts 291°
2026-04-26 18:42 33.94084 -118.54548 5979 ft 141 kts 291°
2026-04-26 18:42 33.94470 -118.55657 5978 ft 145 kts 291°
2026-04-26 18:42 33.94860 -118.56780 5977 ft 147 kts 291°
2026-04-26 18:43 33.95253 -118.57912 5975 ft 148 kts 291°
2026-04-26 18:43 33.95652 -118.59058 5974 ft 148 kts 291°
2026-04-26 18:43 33.96055 -118.60216 5971 ft 149 kts 291°
2026-04-26 18:43 33.96454 -118.61362 5971 ft 149 kts 291°
2026-04-26 18:44 33.96848 -118.62496 5970 ft 149 kts 292°
2026-04-26 18:44 33.97243 -118.63633 5966 ft 149 kts 291°
2026-04-26 18:44 33.97640 -118.64776 5968 ft 148 kts 291°
2026-04-26 18:44 33.98033 -118.65906 5972 ft 149 kts 291°
2026-04-26 18:45 33.98433 -118.67059 5971 ft 149 kts 291°
2026-04-26 18:45 33.98832 -118.68209 5969 ft 150 kts 291°
2026-04-26 18:45 33.99232 -118.69361 5972 ft 150 kts 291°
2026-04-26 18:45 33.99637 -118.70528 5971 ft 150 kts 291°
2026-04-26 18:46 34.00034 -118.71674 5974 ft 149 kts 291°
2026-04-26 18:46 34.00429 -118.72813 5976 ft 149 kts 291°
2026-04-26 18:46 34.00828 -118.73965 5977 ft 149 kts 291°
2026-04-26 18:46 34.01226 -118.75115 5977 ft 149 kts 291°
2026-04-26 18:47 34.01624 -118.76266 5977 ft 149 kts 291°
2026-04-26 18:47 34.02027 -118.77431 5986 ft 149 kts 291°
2026-04-26 18:47 34.02425 -118.78580 5980 ft 150 kts 291°
2026-04-26 18:47 34.02829 -118.79748 5969 ft 150 kts 291°
2026-04-26 18:48 34.03225 -118.80894 5968 ft 150 kts 291°
2026-04-26 18:48 34.03627 -118.82057 5968 ft 149 kts 291°
2026-04-26 18:48 34.04027 -118.83215 5967 ft 149 kts 291°
2026-04-26 18:48 34.04429 -118.84377 5972 ft 150 kts 291°
2026-04-26 18:49 34.04826 -118.85531 5974 ft 150 kts 291°
2026-04-26 18:49 34.05226 -118.86688 5974 ft 150 kts 291°
2026-04-26 18:49 34.05626 -118.87846 5963 ft 150 kts 291°
2026-04-26 18:49 34.06027 -118.89012 5971 ft 149 kts 291°
2026-04-26 18:50 34.06423 -118.90160 5969 ft 150 kts 291°
2026-04-26 18:50 34.06824 -118.91325 5976 ft 150 kts 292°
2026-04-26 18:50 34.07224 -118.92486 5974 ft 149 kts 292°
2026-04-26 18:50 34.07619 -118.93632 5969 ft 148 kts 292°
2026-04-26 18:51 34.08009 -118.94765 5975 ft 147 kts 291°
2026-04-26 18:51 34.08404 -118.95914 5977 ft 147 kts 291°
2026-04-26 18:51 34.08796 -118.97054 5978 ft 147 kts 291°
2026-04-26 18:51 34.09191 -118.98202 5978 ft 148 kts 291°
2026-04-26 18:52 34.09582 -118.99339 5978 ft 148 kts 291°
2026-04-26 18:52 34.09846 -119.00106 5976 ft 148 kts 291°
2026-04-26 18:52 34.10370 -119.01630 5979 ft 148 kts 291°
2026-04-26 18:52 34.10765 -119.02782 5982 ft 148 kts 291°
2026-04-26 18:53 34.11159 -119.03931 5981 ft 148 kts 291°
2026-04-26 18:53 34.11527 -119.05097 5982 ft 148 kts 286°
2026-04-26 18:53 34.11959 -119.06214 5981 ft 148 kts 297°
2026-04-26 18:53 34.12448 -119.07310 5980 ft 149 kts 297°
2026-04-26 18:54 34.12924 -119.08398 5980 ft 149 kts 296°
2026-04-26 18:54 34.13397 -119.09494 5981 ft 150 kts 296°
2026-04-26 18:54 34.13868 -119.10599 5983 ft 150 kts 296°
2026-04-26 18:54 34.14326 -119.11678 5979 ft 150 kts 296°
2026-04-26 18:55 34.14787 -119.12767 5981 ft 150 kts 296°
2026-04-26 18:55 34.15232 -119.13824 5980 ft 149 kts 295°
2026-04-26 18:55 34.15688 -119.14906 5980 ft 149 kts 295°
2026-04-26 18:55 34.16145 -119.15995 5979 ft 149 kts 296°
2026-04-26 18:56 34.16602 -119.17085 5981 ft 149 kts 296°
2026-04-26 18:56 34.17067 -119.18193 5982 ft 149 kts 296°
2026-04-26 18:56 34.17533 -119.19307 5981 ft 149 kts 296°
2026-04-26 18:56 34.18002 -119.20425 5951 ft 149 kts 296°
2026-04-26 18:57 34.18472 -119.21549 5789 ft 152 kts 296°
2026-04-26 18:57 34.18797 -119.22327 5692 ft 156 kts 296°
2026-04-26 18:57 34.19459 -119.23908 5498 ft 161 kts 296°
2026-04-26 18:57 34.19970 -119.25131 5350 ft 163 kts 296°
2026-04-26 18:58 34.20479 -119.26347 5202 ft 164 kts 296°
2026-04-26 18:58 34.20998 -119.27592 5051 ft 164 kts 296°
2026-04-26 18:58 34.21511 -119.28818 4898 ft 164 kts 296°
2026-04-26 18:58 34.22023 -119.30044 4748 ft 164 kts 296°
2026-04-26 18:59 34.22549 -119.31306 4592 ft 165 kts 296°
2026-04-26 18:59 34.23072 -119.32563 4440 ft 165 kts 296°
2026-04-26 18:59 34.23592 -119.33811 4288 ft 164 kts 296°
2026-04-26 18:59 34.24105 -119.35041 4135 ft 164 kts 296°
2026-04-26 19:00 34.24629 -119.36298 4001 ft 162 kts 296°
2026-04-26 19:00 34.25132 -119.37505 3978 ft 157 kts 296°
2026-04-26 19:00 34.25623 -119.38686 3980 ft 153 kts 296°
2026-04-26 19:00 34.26103 -119.39838 3981 ft 151 kts 296°
2026-04-26 19:01 34.26592 -119.41013 3978 ft 150 kts 296°
2026-04-26 19:01 34.27065 -119.42149 3977 ft 149 kts 296°
2026-04-26 19:01 34.27535 -119.43281 3977 ft 149 kts 296°
2026-04-26 19:01 34.28016 -119.44437 3974 ft 148 kts 296°
2026-04-26 19:02 34.28494 -119.45589 3979 ft 149 kts 296°
2026-04-26 19:02 34.28969 -119.46732 3978 ft 149 kts 296°
2026-04-26 19:02 34.29435 -119.47855 3976 ft 149 kts 296°
2026-04-26 19:02 34.29745 -119.48600 3977 ft 149 kts 296°
2026-04-26 19:03 34.30357 -119.50101 3977 ft 149 kts 295°
2026-04-26 19:03 34.30788 -119.51251 3974 ft 149 kts 294°
2026-04-26 19:03 34.31205 -119.52393 3976 ft 149 kts 294°
2026-04-26 19:03 34.31621 -119.53539 3862 ft 149 kts 294°
2026-04-26 19:04 34.32037 -119.54691 3701 ft 148 kts 294°
2026-04-26 19:04 34.32446 -119.55827 3544 ft 147 kts 293°
2026-04-26 19:04 34.32854 -119.56961 3384 ft 147 kts 294°
2026-04-26 19:04 34.33261 -119.58091 3224 ft 146 kts 294°
2026-04-26 19:05 34.34074 -119.60352 2899 ft 146 kts 294°
2026-04-26 19:05 34.34481 -119.61484 2733 ft 145 kts 294°
2026-04-26 19:05 34.34881 -119.62598 2567 ft 146 kts 294°
2026-04-26 19:06 34.35281 -119.63714 2411 ft 145 kts 294°
2026-04-26 19:06 34.35683 -119.64834 2289 ft 143 kts 294°
2026-04-26 19:06 34.36068 -119.65906 2273 ft 134 kts 294°
2026-04-26 19:06 34.36431 -119.66918 2275 ft 127 kts 294°
2026-04-26 19:07 34.36783 -119.67900 2186 ft 128 kts 294°
2026-04-26 19:07 34.37142 -119.68902 2066 ft 132 kts 293°
2026-04-26 19:07 34.37511 -119.69930 1915 ft 137 kts 293°
2026-04-26 19:07 34.37900 -119.71015 1727 ft 142 kts 293°
2026-04-26 19:08 34.38286 -119.72093 1689 ft 136 kts 293°
2026-04-26 19:08 34.38657 -119.73131 1684 ft 130 kts 293°
2026-04-26 19:08 34.39020 -119.74117 1627 ft 129 kts 296°
2026-04-26 19:08 34.39422 -119.75111 1457 ft 136 kts 295°
2026-04-26 19:09 34.39801 -119.76056 1225 ft 119 kts 295°
2026-04-26 19:09 34.40125 -119.76862 998 ft 107 kts 294°
2026-04-26 19:09 34.40429 -119.77574 902 ft 93 kts 305°
2026-04-26 19:09 34.40812 -119.78091 896 ft 84 kts 292°
2026-04-26 19:10 34.40959 -119.78735 900 ft 78 kts 287°
2026-04-26 19:10 34.41190 -119.79354 728 ft 96 kts 299°
2026-04-26 19:10 34.41549 -119.79984 551 ft 97 kts 302°
2026-04-26 19:10 34.41872 -119.80503 623 ft 77 kts 302°
2026-04-26 19:11 34.42174 -119.80978 548 ft 74 kts 301°
2026-04-26 19:11 34.42454 -119.81419 441 ft 67 kts 296°
2026-04-26 19:11 34.42654 -119.81873 321 ft 69 kts 287°
2026-04-26 19:11 34.42774 -119.82379 235 ft 68 kts 278°
2026-04-26 19:12 34.42805 -119.82891 157 ft 64 kts 269°
2026-04-26 19:12 34.42791 -119.83405 63 ft 59 kts 267°
2026-04-26 19:12 34.42787 -119.83849 20 ft 50 kts 267°
2026-04-26 19:12 34.42776 -119.84210 20 ft 38 kts 269°
2026-04-26 19:13 34.42770 -119.84495 20 ft 27 kts 267°
2026-04-26 19:13 34.42793 -119.84618 20 ft 11 kts 345°
2026-04-26 19:13 34.42842 -119.84564 20 ft 13 kts 64°
2026-04-26 19:13 34.42890 -119.84446 21 ft 17 kts 64°
2026-04-26 19:14 34.42944 -119.84306 21 ft 19 kts 65°
2026-04-26 19:14 34.43004 -119.84157 21 ft 20 kts 63°
2026-04-26 19:14 34.43065 -119.84000 21 ft 20 kts 67°
2026-04-26 19:14 34.43096 -119.83900 21 ft 19 kts 61°
2026-04-26 19:15 34.43160 -119.83688 21 ft 21 kts 64°
2026-04-26 19:15 34.43235 -119.83562 21 ft 14 kts 21°
2026-04-26 19:15 34.43279 -119.83589 22 ft 5 kts 263°
2026-04-26 19:15 34.43279 -119.83594 22 ft 0 kts 250°